Date,TemperatureHighF,TemperatureAvgF,TemperatureLowF,DewpointHighF,DewpointAvgF,DewpointLowF,HumidityHigh,HumidityAvg,HumidityLow,PressureMaxIn,PressureMinIn,WindSpeedMaxMPH,WindSpeedAvgMPH,GustSpeedMaxMPH,PrecipitationSumIn
2013-11-1,75,68,61,68,64,59,93,88,77,32.38,28.90,7,3,18,0.00
2013-11-2,72,56,50,59,41,-100,94,71,46,32.31,27.86,6,-78,20,0.00
2013-11-3,64,51,41,44,40,36,87,68,44,32.31,21.68,8,2,18,0.01
2013-11-4,61,44,34,42,36,30,90,74,46,31.70,23.01,4,0,13,0.00
2013-11-5,58,48,35,49,42,31,86,80,67,32.38,26.98,4,1,14,0.00
2013-11-6,76,58,46,59,52,44,92,80,56,32.34,26.69,3,0,10,0.00
2013-11-7,69,60,45,63,55,35,93,83,64,32.48,25.07,6,2,19,0.03
2013-11-8,60,45,31,35,32,27,85,63,35,32.31,20.92,7,2,17,0.00
2013-11-9,62,45,28,40,34,24,90,66,38,32.05,20.92,4,1,11,0.00
2013-11-10,71,51,39,46,31,-100,81,55,36,32.32,26.50,5,-59,12,0.00
2013-11-11,63,45,33,37,28,-100,85,57,35,32.21,26.50,5,-33,19,0.00
2013-11-12,67,41,31,44,29,-100,91,71,38,32.36,27.86,11,-32,27,0.08
2013-11-13,47,32,23,29,14,-100,86,60,41,32.47,20.92,7,-70,19,0.00
2013-11-14,58,35,19,30,23,16,89,65,33,32.32,20.80,4,1,14,0.00
2013-11-15,60,44,26,52,38,21,92,82,53,32.47,26.24,1,0,6,0.03
2013-11-16,71,57,49,61,53,46,92,87,70,32.03,24.81,2,0,5,0.00
2013-11-17,74,62,52,65,58,49,93,87,69,32.37,24.81,4,0,12,0.07
2013-11-18,78,67,54,66,56,35,93,71,44,32.33,27.84,8,3,16,0.01
2013-11-19,60,48,37,35,32,29,77,55,37,32.47,24.38,7,2,20,0.00
2013-11-20,58,39,34,39,15,-100,79,57,49,32.34,25.11,3,-142,11,0.00
2013-11-21,64,48,41,52,35,-100,83,71,61,32.04,31.05,4,-66,13,0.00
2013-11-22,71,56,50,63,44,-100,88,76,74,32.04,26.49,4,-77,10,0.00
2013-11-23,62,53,43,59,40,-100,92,71,47,32.02,26.49,7,-56,14,0.00
2013-11-24,44,32,21,26,9,-100,65,44,28,32.29,27.88,8,-45,19,0.00
2013-11-25,46,31,18,21,14,9,73,52,27,32.42,25.90,2,0,10,0.00
2013-11-26,66,45,36,65,30,-100,94,71,45,32.40,22.30,9,-80,22,0.76
2013-11-27,64,41,29,61,37,20,93,86,68,32.35,22.30,8,4,20,0.34
2013-11-28,47,32,23,27,22,17,84,66,43,32.33,24.40,5,1,13,0.00
2013-11-29,55,34,21,34,20,-100,90,66,40,32.43,20.92,6,-46,17,0.00
2013-11-30,51,35,28,37,20,-100,84,68,56,32.38,20.88,5,-71,13,0.00